Content
SEND FEEDBACK

Daily
Averages
Monthly
Summary
Kenya

WAA, KENYA


Home > Africa > Kenya
Elevation: 180 feet     Latitude: 04 01N     Longitude: 039 37E

WEATHER
 
SELECT A DAY
Number of Records: 132,257;   Date Range: 7/1/96 - 10/21/14
 
SHARE

PRINT THIS DATA

[ ← Previous Day ]
WEATHER ALMANAC - FEBRUARY 13, 2013
[ Next Day → ]
[ °C ]   °F
Weather ElementAverageHighLow
Temperature82.9 °F89.6 °F (12:30 pm)78.8 °F (1:00 am)
Dewpoint72.1 °F74 °F (3:00 am)66.2 °F (2:00 pm)
Humidity70.5 %83 % (1:00 am)42 % (3:00 pm)
Barometer29.79 in29.86 in (8:00 am)29.71 in (4:00 pm)
Wind Speed7.5 mph18.4 mph (2:00 pm)
Weather ElementAverage
Visibility7.8 mi
Wind DirectionENE (50.9 °)

Weather ElementTotal
Precipitation---
Cooling Degree Days19.2 (Base 65)
Growing Degree Days34.2 (Base 50)
Averaged from 24 records on February 13, 2013
WEATHER CONDITIONS BREAKOUT
WIND DIRECTION BREAKOUT
WEATHER BY HOUR - FEBRUARY 13, 2013
[ °C ]   °F
Local TimeTemperatureDewpointHumidityBarometerVisibilityWind DirectionWind SpeedGust SpeedPrecipitationEventsConditions
1:00 AM78.8 °F73.4 °F83 %29.80 in6.2 miCalmScattered Clouds
2:00 AM78.8 °F73.4 °F83 %29.80 in6.2 miCalmScattered Clouds
3:00 AM79.0 °F74.0 °F79 %29.79 in19.0 miCalmMostly Cloudy
3:00 AM78.8 °F73.4 °F83 %29.77 in6.2 miCalmMostly Cloudy
4:00 AM78.8 °F73.4 °F83 %29.80 in6.2 miCalmMostly Cloudy
5:00 AM78.8 °F73.4 °F83 %29.80 in6.2 miCalmPartly Cloudy
6:00 AM78.8 °F73.4 °F83 %29.80 in6.2 miCalmMostly Cloudy
7:00 AM78.8 °F73.4 °F83 %29.83 in6.2 miCalmMostly Cloudy
8:00 AM80.6 °F73.4 °F79 %29.86 in6.2 miNorth (10°)4.6 mphMostly Cloudy
10:00 AM87.8 °F69.8 °F55 %29.86 in6.2 miNNE (20°)8.1 mphMostly Cloudy
11:00 AM87.8 °F69.8 °F55 %29.86 in6.2 miEast (90°)3.5 mphMostly Cloudy
12:00 PM87.8 °F71.6 °F58 %29.83 in6.2 miEast (100°)15.0 mphMostly Cloudy
12:30 PM89.6 °F68.0 °F49 %29.80 in6.2 miSE (140°)15.0 mphMostly Cloudy
2:00 PM89.6 °F66.2 °F46 %29.77 in6.2 miESE (120°)18.4 mphPartly Cloudy
3:00 PM89.0 °F69.0 °F42 %29.75 in19.0 miEast (90°)18.4 mphScattered Clouds
3:00 PM89.6 °F69.8 °F52 %29.74 in6.2 miEast (90°)18.4 mphPartly Cloudy
4:00 PM87.8 °F71.6 °F58 %29.71 in6.2 miENE (70°)18.4 mphPartly Cloudy
6:00 PM84.2 °F73.4 °F70 %29.71 in6.2 miENE (60°)11.5 mphPartly Cloudy
7:00 PM80.6 °F73.4 °F79 %29.74 in6.2 miEast (80°)12.7 mphScattered Clouds
8:00 PM80.6 °F73.4 °F79 %29.77 in6.2 miEast (80°)13.8 mphPartly Cloudy
9:00 PM81.0 °F74.0 °F74 %29.79 in19.0 miENE (70°)6.9 mphScattered Clouds
9:00 PM80.6 °F73.4 °F79 %29.80 in6.2 miENE (70°)6.9 mphPartly Cloudy
10:00 PM80.6 °F73.4 °F79 %29.83 in6.2 miNE (50°)4.6 mphPartly Cloudy
11:00 PM80.6 °F73.4 °F79 %29.83 in6.2 miNNE (30°)3.5 mphPartly Cloudy
Hourly data recorded from HKMO, located miles away from Waa, Kenya







STORIES FROM OUR PARTNERS